[[{"header":{"parameterUnit":"m.s-1","parameterCategory":2,"la1":30.2991,"la2":30.254,"lo1":-89.0895,"lo2":-89.0444,"dy":0.0017,"dx":0.0017,"nx":28,"ny":28,"refTime":"2024-03-01T03:00:00:Z","depth":"0","parameterNumber":2,"parameterNumberName":"U-component_of_CURRENTS"},"data":[0,0,0,0,0,0,0,0,0,0,0,0,0,0,0,0,0,0,0,0,0,0,0,0,0,0,0,0,0,0,0,0,0,0,0,0,0,0,0,0,0,0,0,0,0,0,0,0,0,0,0,0,0,0,0,0,0,0,0.2725,0.2726,0,0.28,0.2801,0.2802,0.2821,0.2821,0.282,0.282,0.2882,0.2883,0.2885,0,0,0,0,0,0,0,0,0,0,0,0,0,0.2644,0.2645,0.2725,0.2726,0.2727,0.28,0.2801,0.2802,0.2821,0.2821,0.282,0.282,0.2881,0.2883,0.2886,0,0,0,0,0,0,0,0,0,0,0,0,0,0.2694,0.2645,0.2725,0.2746,0.2749,0.28,0.2801,0.2802,0.2821,0.2821,0.282,0.2819,0.288,0.2883,0.2886,0.2917,0,0,0.2895,0.2897,0,0,0,0,0,0,0,0,0.2691,0.2697,0.2742,0.2745,0.2748,0.2801,0.2795,0.284,0.2821,0.2793,0.282,0.2819,0.2855,0.286,0.2874,0.292,0.2922,0.2895,0.2897,0.2899,0.2899,0,0,0,0,0,0,0,0.2688,0.2694,0.2754,0.2743,0.2747,0.2768,0.2773,0.2804,0.2825,0.2795,0.2797,0.2807,0.2856,0.2871,0.2876,0.2923,0.2895,0.2898,0.29,0.2901,0.3024,0.3025,0,0,0,0,0,0,0.2679,0.2691,0.2752,0.2757,0.2718,0.2769,0.2776,0.2784,0.2825,0.2831,0.2807,0.2808,0.2866,0.2872,0.2878,0.2938,0.2899,0.2901,0.2903,0.3022,0.3024,0.3026,0,0,0,0,0,0,0.2677,0.2683,0.2749,0.2726,0.2736,0.2771,0.278,0.2786,0.2805,0.2835,0.284,0.2821,0.2866,0.2874,0.2915,0.2939,0.2903,0.2906,0.3021,0.3023,0.3025,0.3044,0,0,0,0,0,0,0.2674,0.2682,0.2684,0.2725,0.2737,0.2788,0.2781,0.2788,0.2812,0.2814,0.2849,0.2853,0.2866,0.2911,0.2918,0.2943,0.2908,0.3019,0.3022,0.3024,0.3042,0.3047,0.3051,0,0,0,0,0,0.2671,0.268,0.2684,0.2691,0.2739,0.2789,0.2797,0.2819,0.2814,0.2832,0.2853,0.2852,0.2933,0.2914,0.2923,0.2949,0.3017,0.3021,0.3024,0.3039,0.3046,0.3051,0,0,0,0,0,0,0.2652,0.2684,0.2689,0.2709,0.2748,0.2792,0.2811,0.2823,0.2855,0.2855,0.2872,0.288,0.2927,0.2937,0.2916,0.2993,0.2975,0.298,0.2984,0.299,0.2995,0.2992,0.291,0,0,0,0,0,0.2647,0.266,0.2701,0.2719,0.2737,0.2773,0.2794,0.2813,0.2847,0.286,0.2883,0.2912,0.2949,0.2966,0.3,0.3041,0.3074,0.3064,0.3068,0.3072,0.3077,0.3139,0.3149,0.3036,0.3036,0.3036,0,0,0.2645,0.2665,0.2672,0.2715,0.2745,0.2787,0.2785,0.2825,0.286,0.2863,0.2911,0.2932,0.2965,0.3013,0.3035,0.3022,0.3129,0.3076,0.3079,0.3082,0.3143,0.3154,0.3164,0.3038,0.3038,0.3038,0,0,0.2662,0.2667,0.2691,0.2722,0.277,0.2797,0.2809,0.2858,0.2878,0.2927,0.294,0.2971,0.3024,0.3053,0.3073,0.3124,0.3154,0.3137,0.3157,0.3217,0.3226,0.3235,0.3318,0.3334,0.3136,0.3136,0.3136,0,0.2663,0.2692,0.2708,0.2746,0.2775,0.2803,0.2845,0.2878,0.2933,0.2958,0.2945,0.303,0.3044,0.3113,0.3123,0.3134,0.3183,0.3129,0.3222,0.3231,0.324,0.3323,0.334,0.3137,0.3137,0.3137,0.3137,0,0.2701,0.2727,0.2747,0.2799,0.2833,0.2873,0.292,0.2957,0.2975,0.3005,0.3068,0.3089,0.3143,0.3147,0.3147,0.3221,0.3243,0.3222,0.3204,0.3252,0.3337,0.3355,0.3139,0.3139,0.3138,0.3138,0,0,0.2704,0.2762,0.2769,0.2799,0.286,0.2898,0.2958,0.3024,0.306,0.3102,0.315,0.3199,0.3208,0.3231,0.3241,0.327,0.3367,0.3269,0.3271,0.3346,0.3531,0.3597,0.3623,0.3365,0.3368,0.337,0.3575,0,0.2734,0.2797,0.2822,0.2891,0.293,0.2971,0.3022,0.3081,0.3117,0.3168,0.3201,0.3243,0.3245,0.3257,0.3303,0.3343,0.3411,0.3315,0.3478,0.3484,0.3531,0.3644,0.3491,0.3666,0.3593,0.3596,0.3598,0,0.2768,0.2804,0.2862,0.2934,0.2954,0.2995,0.3073,0.3123,0.3197,0.3222,0.3281,0.3305,0.338,0.3344,0.3495,0.3438,0.3501,0.3524,0.3533,0.3597,0.3582,0.3602,0.3701,0.3589,0.3625,0.3623,0.3621,0,0.2759,0.2838,0.2878,0.2901,0.2982,0.3016,0.3061,0.3135,0.3193,0.3248,0.3308,0.3379,0.3458,0.3514,0.3627,0.3555,0.3794,0.3699,0.3834,0.384,0.3744,0.3738,0.3745,0.382,0.382,0.3819,0.3819,0,0.2777,0.2816,0.2872,0.2894,0.2946,0.3006,0.3065,0.3116,0.3207,0.3286,0.3339,0.3441,0.3506,0.3659,0.3686,0.3874,0.3877,0.3879,0.3909,0.3752,0.3744,0.3668,0.3619,0.3827,0.3825,0.3824,0.3823,0,0.2759,0.2797,0.2848,0.2919,0.2939,0.2973,0.3072,0.3123,0.322,0.3331,0.3361,0.3544,0.3734,0.3852,0.3981,0.401,0.4011,0.4178,0.4015,0.4021,0.396,0.3918,0.3864,0.3748,0.4302,0.4305,0.4307,0,0.2752,0.2773,0.2839,0.2863,0.289,0.2947,0.2989,0.3095,0.3161,0.3402,0.3466,0.3715,0.3858,0.4146,0.4226,0.4352,0.4185,0.4285,0.4098,0.3986,0.3959,0.3764,0.3652,0.3985,0.3985,0.3984,0.3984,0,0.2727,0.2746,0.2774,0.2826,0.2867,0.2917,0.2992,0.3053,0.32,0.3336,0.3537,0.367,0.4004,0.409,0.433,0.4358,0.4059,0.4286,0.4185,0.3752,0.3521,0.3413,0.3844,0.3982,0.3982,0.3982,0.3982,0.3983,0.2686,0.2697,0.2732,0.2781,0.2828,0.287,0.2879,0.2992,0.3106,0.3288,0.3487,0.3661,0.3894,0.4194,0.4218,0.4186,0.4126,0.4021,0.4,0.3826,0.3641,0.4113,0.4273,0.4274,0.4276,0.4277,0.4278,0,0.2626,0.2649,0.2693,0.2731,0.2754,0.2805,0.2868,0.2867,0.2956,0.3177,0.3339,0.3584,0.3716,0.3864,0.3987,0.3891,0.3633,0.3784,0.3408,0.3325,0.3765,0.3675,0.3693,0.3693,0.3693,0.3693,0.3693,0.3693,0.2584,0.2599,0.2633,0.2642,0.2669,0.264,0.2647,0.2678,0.2781,0.2938,0.3086,0.3272,0.3543,0.3745,0.3696,0.3606,0.3303,0.3204,0.3184,0.3441,0.3456,0.347,0.3371,0.3325,0.3324,0.2538,0.2532,0.2528]},{"header":{"parameterUnit":"m.s-1","parameterCategory":2,"la1":30.2991,"la2":30.254,"lo1":-89.0895,"lo2":-89.0444,"dy":0.0017,"dx":0.0017,"nx":28,"ny":28,"refTime":"2024-03-01T03:00:00:Z","depth":"0","parameterNumber":3,"parameterNumberName":"V-component_of_CURRENTS"},"data":[0,0,0,0,0,0,0,0,0,0,0,0,0,0,0,0,0,0,0,0,0,0,0,0,0,0,0,0,0,0,0,0,0,0,0,0,0,0,0,0,0,0,0,0,0,0,0,0,0,0,0,0,0,0,0,0,0,0,-0.0258,-0.0259,0,-0.0345,-0.0346,-0.0347,-0.0385,-0.0385,-0.0385,-0.0385,-0.0466,-0.0468,-0.047,0,0,0,0,0,0,0,0,0,0,0,0,0,-0.0214,-0.0214,-0.0258,-0.0259,-0.026,-0.0345,-0.0346,-0.0347,-0.0385,-0.0385,-0.0385,-0.0384,-0.0465,-0.0468,-0.0471,0,0,0,0,0,0,0,0,0,0,0,0,0,-0.0261,-0.0214,-0.0258,-0.0288,-0.0292,-0.0344,-0.0346,-0.0348,-0.0385,-0.0385,-0.0385,-0.0384,-0.0464,-0.0467,-0.0471,-0.05,0,0,-0.0482,-0.0483,0,0,0,0,0,0,0,0,-0.0258,-0.0262,-0.0283,-0.0286,-0.029,-0.0353,-0.036,-0.0398,-0.0385,-0.0351,-0.0385,-0.0384,-0.0427,-0.0433,-0.0452,-0.0504,-0.0507,-0.0482,-0.0484,-0.0486,-0.0487,0,0,0,0,0,0,0,-0.0254,-0.0259,-0.0294,-0.0284,-0.0288,-0.0328,-0.0333,-0.0368,-0.0391,-0.0354,-0.0357,-0.0365,-0.0429,-0.0449,-0.0455,-0.0508,-0.0482,-0.0485,-0.0487,-0.0489,-0.057,-0.057,0,0,0,0,0,0,-0.0237,-0.0256,-0.0291,-0.0296,-0.0271,-0.0328,-0.0335,-0.0334,-0.0391,-0.0399,-0.0365,-0.0366,-0.0443,-0.045,-0.0457,-0.0474,-0.0486,-0.0489,-0.0491,-0.057,-0.057,-0.057,0,0,0,0,0,0,-0.0236,-0.0239,-0.0287,-0.0278,-0.0286,-0.0329,-0.0328,-0.0336,-0.035,-0.0399,-0.0407,-0.037,-0.0443,-0.0452,-0.0478,-0.0478,-0.0491,-0.0494,-0.057,-0.057,-0.057,-0.0521,0,0,0,0,0,0,-0.0234,-0.0238,-0.0232,-0.0276,-0.0286,-0.0303,-0.0329,-0.0338,-0.0355,-0.0358,-0.0406,-0.0414,-0.0443,-0.0472,-0.0481,-0.0483,-0.0497,-0.057,-0.057,-0.057,-0.0523,-0.0519,-0.0517,0,0,0,0,0,-0.0232,-0.022,-0.0231,-0.0235,-0.0276,-0.0302,-0.031,-0.0341,-0.0356,-0.0355,-0.0389,-0.0412,-0.0479,-0.0475,-0.0486,-0.0489,-0.057,-0.057,-0.057,-0.0524,-0.052,-0.0517,0,0,0,0,0,0,-0.0193,-0.0224,-0.0237,-0.0234,-0.0259,-0.0307,-0.0311,-0.0337,-0.0366,-0.0367,-0.0413,-0.0423,-0.0447,-0.0474,-0.0468,-0.0512,-0.0528,-0.053,-0.049,-0.0486,-0.0483,-0.0473,-0.05,0,0,0,0,0,-0.0182,-0.0185,-0.0219,-0.0217,-0.0225,-0.0268,-0.0284,-0.0304,-0.0337,-0.035,-0.0384,-0.0422,-0.0458,-0.0474,-0.0507,-0.0531,-0.0545,-0.0541,-0.0537,-0.0535,-0.0534,-0.0564,-0.0564,-0.057,-0.057,-0.057,0,0,-0.0167,-0.0185,-0.0186,-0.0209,-0.0232,-0.0238,-0.0276,-0.0291,-0.03,-0.0354,-0.0371,-0.0412,-0.0462,-0.0488,-0.0501,-0.0508,-0.0533,-0.0535,-0.0532,-0.0533,-0.0564,-0.0564,-0.0563,-0.057,-0.057,-0.057,0,0,-0.0137,-0.0151,-0.0142,-0.0158,-0.0185,-0.0212,-0.0212,-0.0253,-0.0272,-0.0297,-0.0341,-0.038,-0.0427,-0.0468,-0.0495,-0.0496,-0.0516,-0.0505,-0.0483,-0.0512,-0.0512,-0.0512,-0.0495,-0.0494,-0.0503,-0.0503,-0.0503,0,-0.0114,-0.0109,-0.0143,-0.0137,-0.0145,-0.0194,-0.0184,-0.0215,-0.0259,-0.0276,-0.0289,-0.0378,-0.042,-0.0468,-0.047,-0.049,-0.0493,-0.0491,-0.0507,-0.0508,-0.0509,-0.0492,-0.0491,-0.0501,-0.0501,-0.0501,-0.0501,0,-0.0081,-0.0075,-0.0069,-0.0078,-0.0091,-0.0091,-0.0131,-0.0149,-0.0181,-0.0217,-0.0265,-0.033,-0.0379,-0.0407,-0.0441,-0.0474,-0.0466,-0.0498,-0.0513,-0.0505,-0.0487,-0.0487,-0.0497,-0.0498,-0.0499,-0.0499,0,0,-0.0028,-0.0041,-0.0037,-0.0028,-0.0058,-0.0062,-0.0079,-0.0109,-0.0111,-0.0176,-0.0185,-0.028,-0.0318,-0.0352,-0.0407,-0.0447,-0.045,-0.047,-0.0473,-0.0445,-0.0476,-0.0425,-0.042,-0.0484,-0.0485,-0.0485,-0.0448,0,0.0013,0.004,0.0016,0.0042,0.0055,0.0008,0.0002,-0.0035,-0.007,-0.0088,-0.0183,-0.0212,-0.0296,-0.0311,-0.0368,-0.0421,-0.0454,-0.0455,-0.0495,-0.0495,-0.0446,-0.0421,-0.0384,-0.0346,-0.0449,-0.0449,-0.0449,0,0.0058,0.0069,0.0106,0.0108,0.011,0.0116,0.0102,0.0086,0.0034,0.0008,-0.0056,-0.0111,-0.0181,-0.0248,-0.0351,-0.0342,-0.0405,-0.046,-0.046,-0.0434,-0.0446,-0.0379,-0.0343,-0.0566,-0.045,-0.0449,-0.0449,0,0.0117,0.0132,0.0166,0.0168,0.0162,0.0169,0.0155,0.0117,0.0127,0.0072,0.0098,-0.002,-0.0024,-0.0155,-0.0252,-0.03,-0.0338,-0.0416,-0.0434,-0.0429,-0.0418,-0.0411,-0.0599,-0.0497,-0.0497,-0.0497,-0.0497,0,0.0171,0.0198,0.02,0.0222,0.0263,0.0231,0.0269,0.0234,0.0231,0.029,0.0159,0.0212,-0.0,-0.004,-0.019,-0.0272,-0.0283,-0.0415,-0.0421,-0.0395,-0.0387,-0.0597,-0.0716,-0.0496,-0.0496,-0.0496,-0.0496,0,0.023,0.0232,0.0272,0.0285,0.0296,0.032,0.0355,0.0392,0.0372,0.0455,0.0455,0.041,0.0377,0.0189,0.0032,-0.0135,-0.036,-0.0295,-0.022,-0.0219,-0.0481,-0.0595,-0.0733,-0.0835,-0.0329,-0.0328,-0.0327,0,0.0259,0.0291,0.0328,0.037,0.0382,0.0421,0.0466,0.0454,0.0523,0.0611,0.0687,0.0681,0.0735,0.0528,0.0246,0.0016,-0.0237,-0.016,-0.0279,-0.0476,-0.061,-0.0697,-0.0782,-0.0231,-0.0229,-0.0228,-0.0226,0,0.032,0.0336,0.0373,0.0459,0.0519,0.0592,0.0668,0.0751,0.0796,0.0918,0.1103,0.1158,0.0988,0.0806,0.0456,0.0244,-0.0306,-0.0135,-0.0382,-0.0577,-0.0643,-0.0747,-0.0249,-0.0213,-0.0214,-0.0215,-0.0216,-0.0216,0.0369,0.041,0.0475,0.0562,0.0644,0.0783,0.0884,0.1021,0.1201,0.1443,0.1455,0.1627,0.1243,0.0804,0.0487,-0.013,-0.0161,-0.0369,-0.0491,-0.0562,-0.0676,-0.0115,-0.0067,-0.0068,-0.0068,-0.0069,-0.0069,0,0.0442,0.0499,0.0582,0.0706,0.0838,0.0857,0.1047,0.1197,0.1482,0.1729,0.1932,0.1866,0.1396,0.0833,0.0029,-0.0423,-0.0639,-0.0704,-0.0876,-0.0951,-0.0485,-0.0501,-0.0493,-0.0493,-0.0492,-0.0492,-0.0492,-0.0492,0.0488,0.059,0.064,0.087,0.0972,0.1177,0.1309,0.1551,0.1766,0.2123,0.228,0.2334,0.1847,0.0401,-0.0637,-0.0893,-0.1244,-0.1257,-0.1465,-0.1215,-0.1196,-0.1178,-0.1226,-0.137,-0.1371,-0.1888,-0.1893,-0.1897]}],[{"header":{"parameterUnit":"m.s-1","parameterCategory":2,"la1":30.2991,"la2":30.254,"lo1":-89.0895,"lo2":-89.0444,"dy":0.0017,"dx":0.0017,"nx":28,"ny":28,"refTime":"2024-03-01T03:00:00:Z","depth":"2","parameterNumber":2,"parameterNumberName":"U-component_of_CURRENTS"},"data":[0,0,0,0,0,0,0,0,0,0,0,0,0,0,0,0,0,0,0,0,0,0,0,0,0,0,0,0,0,0,0,0,0,0,0,0,0,0,0,0,0,0,0,0,0,0,0,0,0,0,0,0,0,0,0,0,0,0,0.2257,0.2257,0,0.2293,0.2293,0.2293,0.2303,0.2303,0.2303,0.2302,0.2335,0.2336,0.2337,0,0,0,0,0,0,0,0,0,0,0,0,0,0.2201,0.2202,0.2257,0.2257,0.2258,0.2293,0.2293,0.2294,0.2303,0.2303,0.2303,0.2302,0.2335,0.2336,0.2337,0,0,0,0,0,0,0,0,0,0,0,0,0,0.223,0.2202,0.2257,0.2267,0.2268,0.2293,0.2293,0.2294,0.2303,0.2303,0.2302,0.2302,0.2334,0.2336,0.2337,0.2352,0,0,0.2342,0.2343,0,0,0,0,0,0,0,0,0.2228,0.2231,0.2265,0.2267,0.2268,0.2293,0.2285,0.2313,0.2303,0.2289,0.2302,0.2302,0.2321,0.2324,0.2331,0.2354,0.2355,0.2342,0.2343,0.2344,0.2344,0,0,0,0,0,0,0,0.2226,0.223,0.2271,0.2266,0.2267,0.2271,0.2275,0.2291,0.2306,0.2291,0.2292,0.2296,0.2322,0.2329,0.2331,0.2356,0.2342,0.2344,0.2344,0.2345,0.2454,0.2456,0,0,0,0,0,0,0.2223,0.2228,0.227,0.2272,0.2247,0.2273,0.2277,0.2285,0.2306,0.2309,0.2296,0.2297,0.2327,0.233,0.2333,0.2412,0.2344,0.2345,0.2346,0.2452,0.2455,0.2457,0,0,0,0,0,0,0.2221,0.2226,0.2268,0.2251,0.2257,0.2274,0.2283,0.2286,0.2311,0.2311,0.2313,0.2321,0.2327,0.233,0.2361,0.2411,0.2346,0.2347,0.245,0.2453,0.2456,0.2533,0,0,0,0,0,0,0.222,0.2226,0.2235,0.2251,0.2257,0.2294,0.2284,0.2287,0.2314,0.2315,0.2332,0.2334,0.2327,0.2359,0.2362,0.2412,0.2349,0.2448,0.2451,0.2455,0.2528,0.2538,0.2547,0,0,0,0,0,0.2218,0.2229,0.2236,0.2241,0.2269,0.2295,0.2299,0.231,0.2315,0.2331,0.2343,0.2334,0.2385,0.2361,0.2365,0.2417,0.2446,0.245,0.2455,0.2524,0.2536,0.2547,0,0,0,0,0,0,0.2203,0.2231,0.2239,0.2257,0.2281,0.2297,0.2312,0.2325,0.2348,0.2348,0.2352,0.2354,0.2402,0.2398,0.2371,0.246,0.2418,0.2424,0.2469,0.2481,0.249,0.2473,0.235,0,0,0,0,0,0.2206,0.2228,0.2251,0.2268,0.2282,0.2304,0.2318,0.2326,0.2345,0.2356,0.2371,0.2391,0.2422,0.244,0.2455,0.2501,0.2519,0.254,0.255,0.2558,0.2547,0.2643,0.266,0.2472,0.2472,0.2471,0,0,0.2201,0.2224,0.2232,0.2268,0.2287,0.2315,0.2312,0.2338,0.2367,0.2356,0.2402,0.242,0.2439,0.2489,0.2512,0.2495,0.2622,0.2563,0.257,0.2554,0.265,0.2668,0.2684,0.2475,0.2474,0.2474,0,0,0.2206,0.2229,0.2248,0.2276,0.2311,0.2329,0.2344,0.2374,0.2394,0.2434,0.2444,0.2481,0.2526,0.255,0.2569,0.2639,0.2665,0.2667,0.2708,0.2803,0.282,0.2834,0.2883,0.2901,0.2678,0.2678,0.2679,0,0.2204,0.2231,0.2258,0.2289,0.2313,0.2342,0.2369,0.24,0.2437,0.247,0.2454,0.2548,0.2549,0.2635,0.2653,0.266,0.2714,0.2664,0.2817,0.2831,0.2845,0.2892,0.2911,0.2683,0.2682,0.2682,0.2681,0,0.2216,0.2251,0.2269,0.2323,0.2352,0.2381,0.2423,0.2464,0.2493,0.2529,0.261,0.2619,0.2688,0.2699,0.2691,0.2806,0.2813,0.2815,0.2787,0.2869,0.2913,0.2931,0.2689,0.2687,0.2686,0.2685,0,0,0.2198,0.2263,0.2277,0.2306,0.2371,0.2396,0.246,0.253,0.2603,0.2632,0.2725,0.2756,0.2792,0.2813,0.2834,0.2887,0.3012,0.2898,0.2902,0.2945,0.3221,0.3137,0.3149,0.3073,0.3077,0.308,0.3214,0,0.2209,0.2266,0.2296,0.2358,0.2393,0.2445,0.2515,0.2585,0.2654,0.2754,0.2787,0.2876,0.2837,0.2891,0.2947,0.3006,0.3066,0.2974,0.3135,0.3138,0.3054,0.3169,0.292,0.3012,0.3232,0.3235,0.3237,0,0.2219,0.2262,0.231,0.2398,0.2419,0.2464,0.2589,0.2653,0.2798,0.2866,0.2965,0.3009,0.3102,0.3052,0.3194,0.3157,0.3194,0.321,0.3217,0.3118,0.309,0.2966,0.3037,0.3268,0.3265,0.3263,0.3261,0,0.22,0.2278,0.2314,0.234,0.2439,0.2483,0.2552,0.2693,0.277,0.2956,0.3047,0.3167,0.3244,0.3316,0.3344,0.3311,0.3483,0.3448,0.3397,0.339,0.319,0.316,0.3548,0.3547,0.3547,0.3547,0.3546,0,0.2203,0.2238,0.2312,0.2336,0.2411,0.2487,0.26,0.2706,0.2866,0.2973,0.3114,0.3227,0.3322,0.3417,0.3426,0.3478,0.3572,0.3418,0.3435,0.3208,0.318,0.34,0.3381,0.3552,0.3551,0.355,0.3549,0,0.2168,0.2215,0.2261,0.2361,0.2399,0.2454,0.2601,0.2696,0.2873,0.3021,0.3083,0.3306,0.345,0.3507,0.3626,0.3582,0.3627,0.3615,0.3316,0.3294,0.3444,0.3427,0.3582,0.3581,0.358,0.3579,0.3578,0,0.215,0.2173,0.2259,0.229,0.2331,0.2431,0.2515,0.2687,0.2779,0.3052,0.3113,0.3322,0.3427,0.359,0.3582,0.3607,0.3647,0.3364,0.3226,0.3454,0.3456,0.3441,0.3427,0.2997,0.2991,0.2987,0.2983,0,0.2118,0.2144,0.2183,0.2258,0.2326,0.2395,0.2514,0.2574,0.2773,0.2895,0.3078,0.3183,0.3382,0.3324,0.3375,0.3348,0.3337,0.327,0.3648,0.3015,0.291,0.2909,0.2913,0.2943,0.2947,0.295,0.2952,0.2953,0.2089,0.2098,0.2157,0.2213,0.2292,0.2338,0.2358,0.2471,0.257,0.2689,0.2878,0.2958,0.306,0.3025,0.2966,0.2946,0.3155,0.2996,0.3008,0.3024,0.2921,0.2819,0.2813,0.2816,0.2819,0.2822,0.2824,0,0.2035,0.2059,0.211,0.2164,0.2203,0.2275,0.2337,0.2312,0.2344,0.2493,0.2574,0.2425,0.2434,0.2554,0.2466,0.2475,0.2424,0.2371,0.2276,0.2321,0.236,0.2218,0.1927,0.1923,0.192,0.1917,0,0,0.2003,0.2014,0.2029,0.2059,0.2099,0.2083,0.2074,0.2042,0.2091,0.2075,0.2101,0.2294,0.2469,0.2135,0.2127,0.2013,0.2139,0.1941,0.2674,0.2609,0.2642,0.2752,0.2589,0,0,0,0,0]},{"header":{"parameterUnit":"m.s-1","parameterCategory":2,"la1":30.2991,"la2":30.254,"lo1":-89.0895,"lo2":-89.0444,"dy":0.0017,"dx":0.0017,"nx":28,"ny":28,"refTime":"2024-03-01T03:00:00:Z","depth":"2","parameterNumber":3,"parameterNumberName":"V-component_of_CURRENTS"},"data":[0,0,0,0,0,0,0,0,0,0,0,0,0,0,0,0,0,0,0,0,0,0,0,0,0,0,0,0,0,0,0,0,0,0,0,0,0,0,0,0,0,0,0,0,0,0,0,0,0,0,0,0,0,0,0,0,0,0,-0.0049,-0.0049,0,-0.012,-0.0122,-0.0123,-0.0177,-0.0177,-0.0177,-0.0178,-0.0271,-0.0273,-0.0275,0,0,0,0,0,0,0,0,0,0,0,0,0,-0.0011,-0.0011,-0.0048,-0.0049,-0.005,-0.012,-0.0122,-0.0123,-0.0177,-0.0177,-0.0177,-0.0178,-0.027,-0.0273,-0.0275,0,0,0,0,0,0,0,0,0,0,0,0,0,-0.0052,-0.0011,-0.0048,-0.0083,-0.0087,-0.012,-0.0122,-0.0123,-0.0177,-0.0177,-0.0178,-0.0178,-0.0269,-0.0272,-0.0276,-0.029,0,0,-0.0286,-0.0288,0,0,0,0,0,0,0,0,-0.0049,-0.0054,-0.0077,-0.0081,-0.0085,-0.0138,-0.0142,-0.0179,-0.0177,-0.0146,-0.0178,-0.0178,-0.0226,-0.0233,-0.025,-0.0294,-0.0298,-0.0286,-0.0289,-0.029,-0.0291,0,0,0,0,0,0,0,-0.0047,-0.0051,-0.008,-0.0078,-0.0083,-0.0113,-0.0119,-0.015,-0.0186,-0.0148,-0.0152,-0.0155,-0.0229,-0.0246,-0.0252,-0.0299,-0.0286,-0.0289,-0.0292,-0.0293,-0.0363,-0.0362,0,0,0,0,0,0,-0.0029,-0.0048,-0.0078,-0.0082,-0.0065,-0.0113,-0.012,-0.0123,-0.0185,-0.0194,-0.0155,-0.0157,-0.024,-0.0248,-0.0256,-0.027,-0.029,-0.0293,-0.0295,-0.0363,-0.0363,-0.0362,0,0,0,0,0,0,-0.0028,-0.0031,-0.0075,-0.0065,-0.0072,-0.0113,-0.0116,-0.0124,-0.0142,-0.0189,-0.0199,-0.0164,-0.0241,-0.0251,-0.0275,-0.0275,-0.0295,-0.0298,-0.0363,-0.0363,-0.0362,-0.0303,0,0,0,0,0,0,-0.0026,-0.003,-0.0029,-0.0063,-0.0072,-0.0084,-0.0115,-0.0125,-0.0142,-0.0146,-0.02,-0.0209,-0.0242,-0.027,-0.0278,-0.028,-0.03,-0.0363,-0.0363,-0.0363,-0.0306,-0.0301,-0.0297,0,0,0,0,0,-0.0025,-0.0016,-0.0028,-0.0032,-0.0068,-0.0084,-0.0091,-0.0124,-0.0142,-0.0143,-0.0179,-0.0208,-0.0274,-0.0272,-0.0282,-0.0285,-0.0363,-0.0363,-0.0363,-0.0307,-0.0302,-0.0297,0,0,0,0,0,0,0.0002,-0.0022,-0.0036,-0.0035,-0.0053,-0.0091,-0.0094,-0.0119,-0.015,-0.0154,-0.0204,-0.0215,-0.0236,-0.0267,-0.0263,-0.0304,-0.0325,-0.0326,-0.0279,-0.0275,-0.027,-0.0234,-0.0303,0,0,0,0,0,0.001,0.0006,-0.0018,-0.0019,-0.0022,-0.0059,-0.0071,-0.0091,-0.012,-0.0135,-0.0172,-0.0211,-0.0243,-0.0262,-0.0292,-0.0314,-0.0337,-0.0323,-0.0319,-0.0315,-0.0293,-0.0349,-0.0347,-0.0361,-0.0361,-0.0361,0,0,0.0022,0.0006,0.0005,-0.0014,-0.0031,-0.0028,-0.0067,-0.0076,-0.0077,-0.0139,-0.0153,-0.0196,-0.0244,-0.0266,-0.0279,-0.0292,-0.0319,-0.0315,-0.0311,-0.029,-0.0348,-0.0347,-0.0346,-0.0361,-0.0361,-0.0361,0,0,0.0048,0.0032,0.0041,0.0032,0.0014,-0.0006,-0.0004,-0.0036,-0.0051,-0.0071,-0.0115,-0.0145,-0.0202,-0.0229,-0.0253,-0.0242,-0.0293,-0.0268,-0.0222,-0.0277,-0.0276,-0.0276,-0.0283,-0.0284,-0.027,-0.027,-0.027,0,0.006,0.0069,0.0041,0.005,0.0053,0.0011,0.003,0.0008,-0.003,-0.0035,-0.0063,-0.0138,-0.0177,-0.0203,-0.0201,-0.023,-0.0263,-0.0238,-0.0271,-0.0272,-0.0272,-0.028,-0.0281,-0.0267,-0.0267,-0.0268,-0.0268,0,0.0098,0.0103,0.0111,0.0108,0.0107,0.0115,0.0094,0.0088,0.0059,0.0032,0.0002,-0.0059,-0.0106,-0.0129,-0.0162,-0.0188,-0.0208,-0.0257,-0.0281,-0.0267,-0.0276,-0.0278,-0.0263,-0.0264,-0.0265,-0.0265,0,0,0.0125,0.0136,0.0137,0.0158,0.0142,0.0152,0.0157,0.0154,0.0163,0.0108,0.0108,0.0043,-0.0006,-0.0034,-0.0094,-0.0135,-0.0162,-0.0196,-0.02,-0.0194,-0.026,-0.0276,-0.0281,-0.0237,-0.0238,-0.0238,-0.0257,0,0.0162,0.0199,0.0191,0.0234,0.0258,0.0238,0.0249,0.0239,0.0212,0.02,0.0133,0.0101,0.003,0.0,-0.0054,-0.0134,-0.017,-0.015,-0.028,-0.0282,-0.0294,-0.0285,-0.0251,-0.0267,-0.026,-0.026,-0.026,0,0.0201,0.0221,0.0272,0.031,0.0321,0.0339,0.0362,0.0369,0.0339,0.0306,0.0252,0.0191,0.0133,0.006,-0.0065,-0.0059,-0.0147,-0.0209,-0.0213,-0.0247,-0.0304,-0.0285,-0.0272,-0.0265,-0.0265,-0.0265,-0.0264,0,0.0243,0.0281,0.0329,0.0341,0.0371,0.0399,0.0415,0.0403,0.0428,0.0373,0.0377,0.0266,0.0238,0.0094,-0.0037,-0.0066,-0.0166,-0.0228,-0.0314,-0.0314,-0.0315,-0.0316,-0.0313,-0.0313,-0.0313,-0.0313,-0.0313,0,0.0285,0.0325,0.0357,0.0386,0.0449,0.0455,0.0514,0.05,0.0507,0.0556,0.0434,0.0446,0.024,0.0158,0.0001,-0.0149,-0.0147,-0.0286,-0.0326,-0.0292,-0.029,-0.032,-0.0321,-0.0314,-0.0314,-0.0314,-0.0313,0,0.0325,0.0341,0.0407,0.0454,0.0471,0.0522,0.059,0.0639,0.062,0.0683,0.0673,0.0591,0.0473,0.0282,0.0082,-0.0068,-0.0232,-0.0288,-0.0207,-0.0238,-0.0348,-0.0345,-0.0385,-0.0386,-0.0386,-0.0387,-0.0388,0,0.035,0.0384,0.0458,0.0506,0.0533,0.0604,0.0659,0.0676,0.0739,0.0789,0.0836,0.0753,0.0703,0.0409,0.0116,-0.0156,-0.0203,-0.0293,-0.035,-0.0323,-0.0358,-0.0354,-0.0351,-0.0314,-0.0314,-0.0313,-0.0313,0,0.0398,0.0424,0.0479,0.0572,0.0646,0.0735,0.0822,0.0889,0.0945,0.0998,0.1071,0.1044,0.0779,0.0502,0.0124,-0.006,-0.0259,-0.03,-0.0303,-0.0307,-0.026,-0.0293,-0.0291,-0.0312,-0.0312,-0.0313,-0.0313,-0.0313,0.0435,0.0483,0.0556,0.0651,0.0739,0.0862,0.0945,0.1051,0.1163,0.1255,0.1237,0.1194,0.0899,0.0402,0.0089,-0.0243,-0.0242,-0.0361,-0.036,-0.0359,-0.0354,-0.0313,-0.037,-0.037,-0.037,-0.0371,-0.0371,0,0.048,0.0539,0.0632,0.0748,0.0859,0.0896,0.1055,0.1146,0.129,0.1354,0.1386,0.1117,0.081,0.047,-0.0023,-0.0318,-0.0341,-0.04,-0.0366,-0.0364,-0.0364,-0.0359,-0.0376,-0.0377,-0.0378,-0.0378,0,0,0.0508,0.0597,0.0649,0.0826,0.0917,0.1064,0.1161,0.1285,0.1364,0.1421,0.1391,0.1303,0.0912,0.0557,0.0164,-0.0108,-0.0169,-0.0158,-0.0121,-0.0032,-0.0028,-0.0308,-0.0294,0,0,0,0,0]}],[{"header":{"parameterUnit":"m.s-1","parameterCategory":2,"la1":30.2991,"la2":30.254,"lo1":-89.0895,"lo2":-89.0444,"dy":0.0017,"dx":0.0017,"nx":28,"ny":28,"refTime":"2024-03-01T03:00:00:Z","depth":"4","parameterNumber":2,"parameterNumberName":"U-component_of_CURRENTS"},"data":[0,0,0,0,0,0,0,0,0,0,0,0,0,0,0,0,0,0,0,0,0,0,0,0,0,0,0,0,0,0,0,0,0,0,0,0,0,0,0,0,0,0,0,0,0,0,0,0,0,0,0,0,0,0,0,0,0,0,0.129,0.129,0,0.1315,0.1315,0.1315,0.1349,0.135,0.1351,0.1352,0.1407,0.1407,0.1408,0,0,0,0,0,0,0,0,0,0,0,0,0,0.1225,0.1226,0.129,0.129,0.1291,0.1315,0.1315,0.1315,0.1349,0.135,0.1351,0.1352,0.1406,0.1407,0.1408,0,0,0,0,0,0,0,0,0,0,0,0,0,0.1249,0.1226,0.129,0.1313,0.1316,0.1315,0.1315,0.1315,0.1349,0.135,0.1352,0.1353,0.1406,0.1407,0.1408,0.1387,0,0,0.1411,0.1411,0,0,0,0,0,0,0,0,0.1248,0.1251,0.1309,0.1312,0.1315,0.1333,0.1313,0.1342,0.1349,0.1333,0.1352,0.1354,0.1386,0.1389,0.1385,0.139,0.1392,0.1411,0.1412,0.1412,0.1412,0,0,0,0,0,0,0,0.1246,0.125,0.1296,0.131,0.1313,0.1307,0.1312,0.1318,0.135,0.1334,0.1338,0.1346,0.1388,0.1384,0.1387,0.1393,0.1411,0.1412,0.1412,0.1413,0.1484,0.1486,0,0,0,0,0,0,0.1251,0.1248,0.1296,0.1297,0.1288,0.1308,0.1313,0.1323,0.1349,0.1355,0.1344,0.1347,0.1382,0.1386,0.1389,0.1465,0.1412,0.1413,0.1413,0.1483,0.1485,0.1486,0,0,0,0,0,0,0.1249,0.1255,0.1295,0.1276,0.1281,0.1308,0.1319,0.1323,0.1355,0.1357,0.1363,0.1376,0.1383,0.1388,0.1428,0.1464,0.1413,0.1414,0.1481,0.1483,0.1485,0.1553,0,0,0,0,0,0,0.1247,0.1254,0.1276,0.1276,0.1283,0.1321,0.1318,0.1323,0.1357,0.1362,0.1386,0.139,0.1385,0.1426,0.1428,0.1464,0.1415,0.148,0.1482,0.1485,0.1549,0.1557,0.1564,0,0,0,0,0,0.1245,0.1262,0.1276,0.1283,0.1307,0.1322,0.1325,0.1345,0.1358,0.1378,0.1397,0.1391,0.1444,0.1428,0.143,0.1467,0.1478,0.1482,0.1484,0.1546,0.1556,0.1564,0,0,0,0,0,0,0.1245,0.1267,0.1283,0.1308,0.133,0.133,0.1352,0.1363,0.1391,0.1406,0.1405,0.1411,0.1465,0.1452,0.1434,0.1495,0.1461,0.1465,0.1507,0.1516,0.1523,0.1533,0.1416,0,0,0,0,0,0.1255,0.1278,0.1296,0.1321,0.1334,0.1349,0.1364,0.1379,0.1397,0.1412,0.1431,0.1449,0.147,0.1484,0.1501,0.1526,0.1537,0.1552,0.1559,0.1566,0.1575,0.1607,0.1618,0.1496,0.1496,0.1496,0,0,0.1262,0.128,0.1294,0.1325,0.1341,0.1362,0.1362,0.1394,0.1417,0.1412,0.1462,0.1484,0.1486,0.1525,0.1546,0.1523,0.1613,0.1569,0.1575,0.1581,0.1611,0.1623,0.1634,0.1498,0.1497,0.1497,0,0,0.1276,0.1306,0.1328,0.1349,0.1387,0.1393,0.1412,0.1438,0.146,0.1504,0.1511,0.1555,0.1583,0.1592,0.1597,0.1652,0.1658,0.1663,0.1702,0.1733,0.1743,0.1752,0.1812,0.1826,0.1658,0.1658,0.1658,0,0.1291,0.1315,0.1337,0.1364,0.1381,0.1412,0.1434,0.1457,0.1498,0.1518,0.1536,0.1603,0.1613,0.1649,0.1677,0.1671,0.1699,0.1667,0.1743,0.1752,0.176,0.1819,0.1834,0.1661,0.1661,0.1661,0.166,0,0.1308,0.1344,0.1359,0.1401,0.1423,0.1451,0.148,0.1522,0.1559,0.158,0.165,0.1675,0.1714,0.1727,0.1723,0.1785,0.1793,0.1756,0.1721,0.1777,0.1836,0.1849,0.1667,0.1665,0.1664,0.1663,0,0,0.13,0.136,0.137,0.1394,0.1445,0.1459,0.151,0.155,0.1588,0.1651,0.17,0.1757,0.179,0.1798,0.1807,0.1837,0.1936,0.1831,0.1831,0.1894,0.2039,0.191,0.1913,0.1914,0.1916,0.1918,0.2068,0,0.1312,0.1357,0.1382,0.1429,0.1452,0.1495,0.153,0.1577,0.1629,0.169,0.1737,0.1799,0.1807,0.1849,0.1883,0.1929,0.1971,0.19,0.1973,0.1976,0.1855,0.1923,0.1924,0.2078,0.2081,0.2084,0.2085,0,0.1315,0.1346,0.1387,0.1439,0.1452,0.1488,0.1552,0.159,0.1673,0.1719,0.1796,0.1844,0.1935,0.1918,0.2039,0.2,0.2033,0.2057,0.2062,0.1923,0.1871,0.2003,0.211,0.2108,0.2106,0.2105,0.2103,0,0.1281,0.1346,0.1375,0.1396,0.1461,0.1495,0.1535,0.1609,0.1653,0.1757,0.1819,0.1911,0.1999,0.2048,0.2127,0.21,0.2241,0.2197,0.2114,0.2107,0.2149,0.2137,0.2265,0.2264,0.2264,0.2264,0.2263,0,0.1265,0.1295,0.1372,0.1391,0.1432,0.1484,0.1542,0.1597,0.1691,0.175,0.1844,0.1913,0.2039,0.2132,0.2162,0.2196,0.2278,0.2143,0.2133,0.2178,0.2168,0.2161,0.2147,0.2269,0.2268,0.2267,0.2266,0,0.1217,0.1271,0.1309,0.1387,0.142,0.1449,0.155,0.1589,0.1693,0.1783,0.1831,0.1974,0.21,0.2196,0.2304,0.2249,0.2277,0.2256,0.2345,0.2333,0.2123,0.2111,0.2194,0.2191,0.2188,0.2186,0.2184,0,0.1191,0.1209,0.1297,0.1321,0.1364,0.1429,0.1471,0.158,0.1633,0.1797,0.1833,0.2007,0.2089,0.2157,0.2244,0.2308,0.2266,0.227,0.2156,0.2132,0.2115,0.2107,0.2099,0.2179,0.2178,0.2177,0.2177,0,0.1132,0.1174,0.1203,0.1256,0.1308,0.1354,0.1437,0.1469,0.1598,0.1727,0.1809,0.1875,0.201,0.2095,0.2167,0.2186,0.2258,0.2239,0.2244,0.2137,0.2115,0.2098,0.2094,0.2167,0.2168,0.2169,0.217,0,0.1083,0.1086,0.1132,0.1166,0.1227,0.125,0.1304,0.138,0.1451,0.1648,0.1678,0.1838,0.1996,0.2034,0.2084,0.2115,0.208,0.1994,0.2011,0.2023,0.1891,0.1833,0.1807,0,0,0,0,0,0.1023,0.1019,0.104,0.1067,0.1121,0.1164,0.1265,0.1326,0.1478,0.1504,0.1589,0.1697,0.1791,0.187,0.1873,0.2003,0.2079,0.1994,0.1984,0.2111,0.2123,0.198,0,0,0,0,0,0,0.098,0.0997,0.1004,0.0979,0.099,0.1038,0.1098,0.1197,0.1225,0.1393,0.1464,0.1599,0.1727,0.1793,0.1846,0.1873,0.183,0.2108,0.2103,0.2104,0.2115,0.2124,0.1981,0,0,0,0,0]},{"header":{"parameterUnit":"m.s-1","parameterCategory":2,"la1":30.2991,"la2":30.254,"lo1":-89.0895,"lo2":-89.0444,"dy":0.0017,"dx":0.0017,"nx":28,"ny":28,"refTime":"2024-03-01T03:00:00:Z","depth":"4","parameterNumber":3,"parameterNumberName":"V-component_of_CURRENTS"},"data":[0,0,0,0,0,0,0,0,0,0,0,0,0,0,0,0,0,0,0,0,0,0,0,0,0,0,0,0,0,0,0,0,0,0,0,0,0,0,0,0,0,0,0,0,0,0,0,0,0,0,0,0,0,0,0,0,0,0,0.0084,0.0084,0,0.006,0.0059,0.0059,0.003,0.0029,0.0029,0.0028,-0.0037,-0.0038,-0.0039,0,0,0,0,0,0,0,0,0,0,0,0,0,0.0116,0.0116,0.0084,0.0084,0.0083,0.006,0.0059,0.0059,0.003,0.0029,0.0029,0.0028,-0.0037,-0.0038,-0.004,0,0,0,0,0,0,0,0,0,0,0,0,0,0.0099,0.0116,0.0084,0.0065,0.0063,0.006,0.0059,0.0059,0.003,0.0029,0.0028,0.0028,-0.0036,-0.0038,-0.004,-0.0035,0,0,-0.0045,-0.0046,0,0,0,0,0,0,0,0,0.01,0.0098,0.0068,0.0066,0.0064,0.0046,0.0047,0.0025,0.003,0.0044,0.0028,0.0027,-0.0013,-0.0017,-0.0018,-0.0038,-0.0041,-0.0046,-0.0047,-0.0047,-0.0048,0,0,0,0,0,0,0,0.0101,0.0099,0.0075,0.0068,0.0065,0.0061,0.0058,0.0043,0.002,0.0042,0.004,0.0036,-0.0015,-0.0016,-0.0019,-0.0041,-0.0045,-0.0047,-0.0048,-0.0049,-0.0074,-0.0074,0,0,0,0,0,0,0.0103,0.01,0.0076,0.0075,0.0079,0.0061,0.0058,0.0054,0.0021,0.0016,0.0037,0.0035,-0.0012,-0.0017,-0.0022,-0.0019,-0.0047,-0.0049,-0.005,-0.0075,-0.0074,-0.0074,0,0,0,0,0,0,0.0103,0.0101,0.0077,0.0086,0.0083,0.0062,0.0057,0.0053,0.0049,0.0017,0.0011,0.0035,-0.0013,-0.0019,-0.0039,-0.0022,-0.005,-0.0052,-0.0075,-0.0075,-0.0074,-0.0012,0,0,0,0,0,0,0.0105,0.0101,0.0101,0.0086,0.0082,0.0075,0.0058,0.0054,0.0047,0.0044,0.0014,0.0007,-0.0014,-0.0036,-0.0041,-0.0025,-0.0053,-0.0076,-0.0075,-0.0074,-0.0015,-0.001,-0.0005,0,0,0,0,0,0.0106,0.011,0.0101,0.0098,0.0081,0.0075,0.0073,0.0056,0.0048,0.0049,0.0026,0.0008,-0.0035,-0.0038,-0.0043,-0.0027,-0.0076,-0.0075,-0.0074,-0.0017,-0.0011,-0.0005,0,0,0,0,0,0,0.0121,0.0107,0.0097,0.0095,0.0085,0.007,0.0072,0.006,0.0044,0.0042,0.001,0.0002,-0.0008,-0.0028,-0.003,-0.0033,-0.0057,-0.0057,-0.0011,-0.0006,-0.0001,0.0016,-0.0055,0,0,0,0,0,0.0125,0.0125,0.0109,0.0107,0.0105,0.009,0.0086,0.0075,0.0059,0.0052,0.0028,0.0007,-0.0006,-0.0015,-0.0034,-0.0035,-0.0066,-0.0028,-0.0023,-0.0019,-0.0009,-0.0039,-0.0036,-0.0071,-0.0071,-0.0071,0,0,0.0131,0.0122,0.0122,0.011,0.0104,0.011,0.0086,0.0084,0.009,0.0047,0.0046,0.0021,-0.0004,-0.0007,-0.0012,-0.0022,-0.0029,-0.0018,-0.0014,-0.0007,-0.0038,-0.0034,-0.0031,-0.007,-0.007,-0.007,0,0,0.0148,0.0136,0.0145,0.0141,0.0132,0.0125,0.0126,0.0111,0.0107,0.0101,0.0075,0.006,0.0036,0.0026,0.0018,0.0038,-0.0004,0.0031,0.0073,0.0045,0.0048,0.005,0.0002,-0.0,0.0037,0.0037,0.0037,0,0.0153,0.0161,0.0146,0.0155,0.0161,0.0135,0.0152,0.0146,0.0125,0.0132,0.0107,0.0085,0.0056,0.0066,0.007,0.0052,0.0018,0.0055,0.0052,0.0054,0.0055,0.0005,0.0002,0.004,0.004,0.0039,0.0039,0,0.0178,0.0185,0.0192,0.0197,0.0202,0.021,0.0204,0.0205,0.0194,0.0188,0.0189,0.015,0.0139,0.0128,0.0103,0.0107,0.0074,0.006,0.004,0.0062,0.0008,0.0003,0.0044,0.0043,0.0042,0.0042,0,0,0.0187,0.0206,0.0208,0.0228,0.0228,0.0239,0.0255,0.0269,0.029,0.0262,0.0282,0.0255,0.0232,0.0221,0.0188,0.0163,0.013,0.0117,0.0114,0.0075,0.0049,0.0021,0.0012,0.0113,0.0113,0.0113,0.0004,0,0.021,0.0244,0.0248,0.0288,0.031,0.0307,0.0333,0.0343,0.0337,0.0344,0.0314,0.0313,0.0269,0.0263,0.0232,0.0156,0.0122,0.016,0.003,0.0026,0.0002,0.0008,0.0112,-0.0,-0.0002,-0.0002,-0.0003,0,0.0235,0.0257,0.0302,0.0353,0.0365,0.0387,0.0432,0.0451,0.0455,0.0452,0.0441,0.0404,0.0369,0.0322,0.0215,0.0239,0.0152,0.0088,0.0082,0.0035,-0.001,-0.0026,-0.0013,-0.0012,-0.0011,-0.001,-0.001,0,0.0259,0.03,0.0343,0.0356,0.0401,0.0434,0.0463,0.0488,0.0519,0.0517,0.0524,0.0475,0.0445,0.0346,0.0206,0.0208,0.007,0.0055,-0.0051,-0.0055,-0.0025,-0.0026,-0.002,-0.002,-0.002,-0.002,-0.0019,0,0.0285,0.0321,0.0361,0.0385,0.0455,0.0478,0.0548,0.0568,0.0596,0.0634,0.0583,0.0575,0.0448,0.035,0.0223,0.0066,0.008,-0.0043,-0.0079,0.0001,0.0004,-0.003,-0.003,-0.0024,-0.0023,-0.0022,-0.0021,0,0.0304,0.0325,0.0383,0.0442,0.0469,0.0523,0.0605,0.0655,0.0672,0.071,0.071,0.0644,0.0511,0.0365,0.0186,0.009,-0.0058,-0.012,-0.0037,-0.0067,-0.0171,-0.0166,-0.0239,-0.0241,-0.0243,-0.0244,-0.0245,0,0.0316,0.0344,0.0423,0.0467,0.0498,0.0576,0.064,0.0691,0.0734,0.0744,0.0758,0.065,0.0579,0.0314,0.0152,-0.0089,-0.0122,-0.0194,-0.0166,-0.0163,-0.019,-0.0183,-0.0177,-0.0247,-0.0248,-0.0248,-0.0249,0,0.0339,0.0366,0.0414,0.0504,0.0577,0.0658,0.0738,0.0772,0.0824,0.0835,0.0792,0.0662,0.0506,0.0304,0.0114,-0.0057,-0.0139,-0.021,-0.0208,-0.0182,-0.0173,-0.0198,-0.0189,-0.0254,-0.0253,-0.0252,-0.0252,0,0.0357,0.0393,0.0457,0.054,0.063,0.071,0.0755,0.08,0.0842,0.0846,0.0819,0.0663,0.0575,0.0317,0.0139,-0.0029,-0.0068,-0.0105,-0.0108,-0.0105,-0.0032,0.0,-0.0055,0,0,0,0,0,0.0369,0.0412,0.0489,0.0577,0.0666,0.072,0.0809,0.0844,0.088,0.086,0.0844,0.0697,0.0443,0.033,0.0155,0.0096,-0.0108,-0.0114,-0.0154,-0.0282,-0.0276,-0.0216,0,0,0,0,0,0,0.0378,0.0444,0.0485,0.0591,0.0654,0.0756,0.0816,0.0844,0.0829,0.0834,0.0697,0.065,0.0394,0.0534,0.0147,0.0096,0.0048,-0.023,-0.0234,-0.0286,-0.028,-0.0276,-0.0211,0,0,0,0,0]}]]